DW0226 Weather Reports


Display with metric or nautical units.
time (UTC)temp
F
wind
direction
speed
MPH
gust
MPH
rain 1hr
in
rain 24hr
in
rain mn
in
humidity
%
barometer
mb
20260506195047 68 219 1.0 8.0 0.00 0.08 0.08 83 1007.2
20260506194019 68 219 0.0 6.0 0.00 0.08 0.08 83 1007.6
20260506193048 68 245 5.0 9.0 0.00 0.08 0.08 82 1007.8
20260506192056 68 250 5.0 9.0 0.00 0.08 0.08 82 1008.0
20260506191023 68 252 4.0 11.0 0.00 0.08 0.08 82 1007.9
20260506190034 68 257 4.0 17.0 0.00 0.08 0.08 82 1007.9
20260506185020 68 256 4.0 7.0 0.00 0.08 0.08 82 1008.2
20260506184030 68 269 5.0 10.0 0.00 0.08 0.08 83 1008.4
20260506183038 68 258 3.0 11.0 0.00 0.08 0.08 82 1008.5
20260506182028 68 259 5.0 11.0 0.00 0.08 0.08 82 1008.7
20260506181036 68 175 6.0 12.0 0.00 0.08 0.08 82 1008.6
20260506180044 67 256 4.0 10.0 0.00 0.08 0.08 83 1008.4
20260506175049 67 213 4.0 12.0 0.00 0.08 0.08 84 1008.7
20260506174058 66 221 4.0 10.0 0.00 0.08 0.08 85 1008.7
20260506173028 66 163 1.0 8.0 0.00 0.08 0.08 85 1008.8
20260506172034 66 189 2.0 7.0 0.00 0.08 0.08 86 1008.8
20260506171023 65 164 0.0 9.0 0.00 0.08 0.08 87 1008.8
20260506170034 65 242 2.0 10.0 0.01 0.08 0.08 87 1009.0
20260506165044 64 235 3.0 11.0 0.02 0.08 0.08 87 1009.0
20260506164030 64 219 8.0 12.0 0.02 0.08 0.08 88 1009.5
20260506163038 63 229 5.0 14.0 0.03 0.08 0.08 89 1009.3
20260506162025 63 187 1.0 6.0 0.05 0.08 0.08 90 1009.1
20260506161056 63 149 2.0 9.0 0.06 0.08 0.08 90 1009.2
20260506160023 63 219 2.0 7.0 0.06 0.07 0.07 89 1009.6
20260506155029 63 138 4.0 8.0 0.06 0.07 0.07 89 1009.6
20260506154019 63 229 2.0 6.0 0.05 0.06 0.06 88 1009.8
20260506153059 63 155 1.0 11.0 0.04 0.05 0.05 87 1009.8
20260506152039 64 226 4.0 9.0 0.02 0.03 0.03 85 1010.0
20260506151024 64 243 3.0 11.0 0.01 0.02 0.02 84 1010.1
20260506150033 65 200 4.0 7.0 0.00 0.01 0.01 83 1010.1
20260506145021 65 226 2.0 9.0 0.01 0.01 0.01 83 1010.2
20260506144028 65 148 2.0 6.0 0.01 0.01 0.01 84 1010.1
20260506143036 64 210 2.0 5.0 0.01 0.01 0.01 84 1009.9
20260506142022 64 208 1.0 5.0 0.01 0.01 0.01 83 1009.9
20260506141033 64 244 3.0 5.0 0.01 0.01 0.01 83 1010.0
20260506140024 65 203 0.0 4.0 0.01 0.01 0.01 81 1010.1
20260506135031 65 254 3.0 9.0 0.00 0.00 0.00 80 1010.2
20260506134018 66 219 1.0 5.0 0.00 0.00 0.00 78 1009.9
20260506133034 66 212 1.0 6.0 0.00 0.00 0.00 77 1010.2
20260506132040 67 275 1.0 11.0 0.00 0.00 0.00 75 1010.0
20260506131021 67 147 1.0 8.0 0.00 0.00 0.00 75 1010.0
20260506130030 67 155 4.0 7.0 0.00 0.00 0.00 74 1009.7
20260506125041 67 163 3.0 11.0 0.00 0.00 0.00 74 1009.8
20260506124026 67 94 3.0 9.0 0.00 0.00 0.00 73 1009.8
20260506123033 67 263 1.0 9.0 0.00 0.00 0.00 74 1009.8
20260506122021 67 153 1.0 9.0 0.00 0.00 0.00 74 1009.8
20260506121032 67 148 2.0 7.0 0.00 0.00 0.00 74 1010.1
20260506120042 66 216 3.0 9.0 0.00 0.00 0.00 74 1010.1
20260506115027 66 192 4.0 9.0 0.00 0.00 0.00 74 1010.1
20260506114056 66 46 2.0 7.0 0.00 0.00 0.00 75 1010.1
20260506113022 66 217 0.0 6.0 0.00 0.00 0.00 75 1010.0
20260506112037 66 165 3.0 6.0 0.00 0.00 0.00 75 1009.9
20260506111024 65 229 4.0 9.0 0.00 0.00 0.00 75 1010.0
20260506110052 65 110 3.0 9.0 0.00 0.00 0.00 76 1009.8
20260506105037 64 130 1.0 5.0 0.00 0.00 0.00 77 1009.8
20260506104027 64 192 1.0 5.0 0.00 0.00 0.00 77 1009.9
20260506103018 64 182 2.0 10.0 0.00 0.00 0.00 77 1009.7
20260506102027 64 205 1.0 4.0 0.00 0.00 0.00 78 1009.6
20260506101048 64 169 1.0 6.0 0.00 0.00 0.00 78 1009.5
20260506100037 64 225 3.0 7.0 0.00 0.00 0.00 78 1009.6
20260506095044 64 209 1.0 5.0 0.00 0.00 0.00 79 1009.6
20260506094029 64 173 1.0 5.0 0.00 0.00 0.00 79 1009.7
20260506093017 64 225 3.0 7.0 0.00 0.00 0.00 79 1009.6
20260506092031 64 252 2.0 6.0 0.00 0.00 0.00 79 1009.7
20260506091019 65 130 2.0 8.0 0.00 0.00 0.00 78 1009.8
20260506090048 65 267 2.0 9.0 0.00 0.00 0.00 78 1009.8
20260506085030 65 194 2.0 10.0 0.00 0.00 0.00 78 1009.8
20260506084036 65 115 5.0 13.0 0.00 0.00 0.00 78 1009.9
20260506083028 65 218 4.0 7.0 0.00 0.00 0.00 78 1009.8
20260506082057 65 164 1.0 7.0 0.00 0.00 0.00 78 1009.8
20260506081023 65 226 1.0 10.0 0.00 0.00 0.00 77 1009.8
20260506073020 66 205 3.0 12.0 0.00 0.00 0.00 76 1009.9
20260506072026 66 227 2.0 12.0 0.00 0.00 0.00 76 1010.1
20260506071057 66 329 1.0 7.0 0.00 0.00 0.00 75 1010.1
20260506062023 67 209 3.0 10.0 0.00 0.00 0.00 73 1010.0
20260506061029 68 213 4.0 7.0 0.00 0.00 0.00 73 1010.2
20260506051025 70 165 5.0 14.0 0.00 0.00 0.00 70 1010.5
20260506045022 70 136 4.0 10.0 0.00 0.00 0.00 69 1010.6
20260506044029 70 140 3.0 11.0 0.00 0.00 0.00 68 1010.6
20260506043021 70 178 3.0 12.0 0.00 0.00 0.00 67 1010.6
20260506042028 70 205 1.0 9.0 0.00 0.00 0.00 66 1010.6
20260506041018 71 178 5.0 10.0 0.00 0.00 0.00 65 1010.7
20260506040029 71 256 4.0 10.0 0.00 0.00 0.00 65 1010.6
20260506035024 71 222 3.0 11.0 0.00 0.00 0.00 64 1010.5
20260506034032 71 171 6.0 11.0 0.00 0.00 0.00 63 1010.5
20260506033023 72 184 1.0 9.0 0.00 0.00 0.00 61 1010.6
20260506032030 72 172 2.0 10.0 0.00 0.00 0.00 60 1010.5
20260506031022 72 246 2.0 7.0 0.00 0.00 0.00 60 1010.5
20260506030029 72 238 2.0 5.0 0.00 0.00 0.00 60 1010.6
20260506025054 72 210 3.0 6.0 0.00 0.00 0.00 59 1010.6
20260506024103 72 270 3.0 7.0 0.00 0.00 0.00 59 1010.6
20260506023031 72 245 2.0 5.0 0.00 0.00 0.00 58 1010.7
20260506022017 73 143 2.0 6.0 0.00 0.00 0.00 57 1010.7
20260506021026 73 156 3.0 7.0 0.00 0.00 0.00 57 1010.6
20260506020034 73 264 2.0 6.0 0.00 0.00 0.00 56 1010.6
20260506015024 73 236 1.0 6.0 0.00 0.00 0.00 55 1010.5
20260506014052 74 165 2.0 7.0 0.00 0.00 0.00 55 1010.4
20260506013039 74 202 3.0 10.0 0.00 0.00 0.00 54 1010.3
20260506012025 74 223 1.0 9.0 0.00 0.00 0.00 53 1010.2
20260506011037 74 133 1.0 6.0 0.00 0.00 0.00 52 1010.2
20260506010023 74 150 2.0 7.0 0.00 0.00 0.00 51 1010.1
20260506005030 75 192 2.0 6.0 0.00 0.00 0.00 51 1009.8
20260506004036 75 241 0.0 6.0 0.00 0.00 0.00 50 1009.6
20260506003047 75 186 1.0 6.0 0.00 0.00 0.00 50 1009.7
20260506002036 76 178 3.0 6.0 0.00 0.00 0.00 49 1009.5
20260506001023 76 261 3.0 9.0 0.00 0.00 0.00 49 1009.5
20260506000032 76 217 3.0 6.0 0.00 0.00 0.00 47 1009.4
20260505235025 77 235 3.0 9.0 0.00 0.00 0.00 47 1009.3
20260505234015 78 161 5.0 12.0 0.00 0.00 0.00 46 1009.1
20260505233046 78 249 2.0 7.0 0.00 0.00 0.00 45 1009.1
20260505232035 79 158 2.0 7.0 0.00 0.00 0.00 43 1009.0
20260505231026 80 219 2.0 11.0 0.00 0.00 0.00 42 1008.9
20260505230057 80 198 4.0 10.0 0.00 0.00 0.00 42 1008.9
20260505225042 80 218 3.0 9.0 0.00 0.00 0.00 43 1008.8
20260505224031 80 202 4.0 7.0 0.00 0.00 0.00 42 1008.8
20260505223021 80 239 3.0 11.0 0.00 0.00 0.00 42 1008.8
20260505222051 81 250 3.0 7.0 0.00 0.00 0.00 40 1008.7
20260505221037 81 239 3.0 14.0 0.00 0.00 0.00 38 1008.7
20260505220025 82 201 6.0 12.0 0.00 0.00 0.00 38 1008.7
20260505215031 82 138 2.0 7.0 0.00 0.00 0.00 39 1008.7
20260505214026 82 180 3.0 12.0 0.00 0.00 0.00 34 1008.8
20260505213058 82 237 10.0 19.0 0.00 0.00 0.00 35 1008.8
20260505212023 82 178 5.0 10.0 0.00 0.00 0.00 37 1008.6
20260505211030 83 198 6.0 17.0 0.00 0.00 0.00 34 1008.7
20260505210044 83 223 7.0 15.0 0.00 0.00 0.00 33 1008.5
20260505205034 84 186 6.0 13.0 0.00 0.00 0.00 33 1008.5
20260505204023 83 61 4.0 15.0 0.00 0.00 0.00 34 1008.6
20260505203031 83 224 4.0 13.0 0.00 0.00 0.00 37 1008.7
20260505202023 84 269 2.0 14.0 0.00 0.00 0.00 39 1008.7
20260505201051 84 222 5.0 12.0 0.00 0.00 0.00 37 1008.9
20260505200022 84 211 3.0 12.0 0.00 0.00 0.00 39 1009.0